Hourly Weather Roundup
Issued by NWS Central Illinois

Home | Current Version | Previous Version | Text Only | Print | Product List | Glossary On
Versions: 1 2 3 4 5 6 7 8 9 10 11 12 13 14 15 16 17 18 19 20 21 22 23 24 25 26 27 28 29 30 31 32 33 34 35 36 37 38 39 40 41 42 43 44 45 46 47 48 49 50
000
NZUS43 KILX 310610
HWRILX

AREA WEATHER ROUNDUP
NATIONAL WEATHER SERVICE, LINCOLN IL
100 AM CDT FRI OCT 31 2014


CITY           SKY/WX    TMP DP  RH WIND       PRES   REMARKS
BLOOMINGTON    MOCLDY    43  42  96 N6        30.08S
6HR MIN TEMP:  42; 6HR MAX TEMP:  46; 6HR PCP:  0.03;

CHAMPAIGN      CLOUDY    44  42  93 N7        30.05F
6HR MIN TEMP:  43; 6HR MAX TEMP:  48; 6HR PCP:  0.05;

DECATUR        CLOUDY    46  44  93 CALM      30.06F
6HR MIN TEMP:  46; 6HR MAX TEMP:  48; 6HR PCP:  0.17;

FLORA          MOCLDY    47  45  91 NE5       30.05S
6HR MIN TEMP:  47; 6HR MAX TEMP:  53; 6HR PCP:  0.08;

GALESBURG      CLOUDY    44  41  90 CALM      30.11S
JACKSONVILLE   CLOUDY    44  42  92 N3        30.09R
6HR MIN TEMP:  43; 6HR MAX TEMP:  51;

LACON          CLOUDY    44  40  85 W3        30.08S
6HR MIN TEMP:  42; 6HR MAX TEMP:  44;

LAWRENCEVILLE  LGT RAIN  47  45  93 NE3       30.05F
6HR MIN TEMP:  47; 6HR MAX TEMP:  52; 6HR PCP:  0.07;

LITCHFIELD     PTCLDY    46  42  87 E3        30.05S
$$


CITY           SKY/WX    TMP DP  RH WIND       PRES   REMARKS
LINCOLN        MOCLDY    44  42  93 CALM      30.07R
6HR MIN TEMP:  44; 6HR MAX TEMP:  48;

MACOMB         CLOUDY    44  42  93 N3        30.13S
MATTOON        CLOUDY    46  44  93 NE3       30.05S
6HR MIN TEMP:  46; 6HR MAX TEMP:  49; 6HR PCP: TRACE;

MT CARMEL AP   RAIN      50  46  87 CALM      30.04F
OLNEY-NOBLE AP CLOUDY    46  45  93 CALM      30.05S
PARIS          MOCLDY    46  44  95 CALM      30.06F
6HR MIN TEMP:  45; 6HR MAX TEMP:  48;

PEORIA         CLOUDY    46  41  82 NW3       30.09S
6HR MIN TEMP:  45; 6HR MAX TEMP:  47;

PONTIAC        CLOUDY    44  42  93 W3        30.07F
RANTOUL        CLOUDY    45  42  89 NW5       30.06R
6HR MIN TEMP:  44; 6HR MAX TEMP:  49;

ROBINSON       CLOUDY    48  46  93 CALM      30.06F
6HR MIN TEMP:  48; 6HR MAX TEMP:  52; 6HR PCP:  0.06;

SPRINGFIELD    MOCLDY    46  43  89 CALM      30.08S
6HR MIN TEMP:  45; 6HR MAX TEMP:  51;

TAYLORVILLE    MOCLDY    45  43  93 N6        30.06S
$$

...REGIONAL REPORTS...


CITY           SKY/WX    TMP DP  RH WIND       PRES   REMARKS
CHICAGO O`HARE CLOUDY    47  36  65 W9        30.02F
KANKAKEE       CLOUDY    42  39  88 W6        30.05F
MOLINE         CLOUDY    49  37  63 NW13      30.11R
MOUNT VERNON   CLOUDY    48  45  87 N6        30.04S
PITTSFIELD     MOCLDY    46  43  87 N3        30.11R
QUINCY         CLOUDY    46  41  82 N7        30.10S
ROCKFORD       CLOUDY    47  37  68 NW12      30.07F
$$


CITY           SKY/WX    TMP DP  RH WIND       PRES   REMARKS
BURLINGTON     CLOUDY    47  41  80 NW7       30.12S
CEDAR RAPIDS   CLOUDY    45  33  63 N24G33    30.17R
DES MOINES     CLOUDY    44  31  60 N22G37    30.29R
KIRKSVILLE     CLOUDY    50  42  74 N14       30.16R
OTTUMWA        LGT RAIN  48  37  65 N20G26    30.19R
ST LOUIS       MOCLDY    48  44  86 N7        30.06R
$$


CITY           SKY/WX    TMP DP  RH WIND       PRES   REMARKS
TERRE HAUTE    CLOUDY    47  45  93 CALM      30.05F
EVANSVILLE     CLOUDY    51  42  71 N6        30.04S
INDIANAPOLIS   CLOUDY    47  39  74 W3        30.03F
LAFAYETTE      CLOUDY    43  39  86 CALM      30.04F
MADISON        CLOUDY    43  30  60 NW14G20   30.09R
MILWAUKEE      LGT RAIN  45  32  60 NW14G24   30.02S
$$





USA.gov is the U.S. government's official web portal to all federal, state and local government web resources and services.